Location: Bremen
(53.0793°N, 8.8017°E)
Time: 00:00:11
(UTC+02:00)

Altair - Pass Details

Date: 14 April 2024
Orbit: 1501 x 1682 km, 47.2° (Epoch: 19 May)

Event Time Altitude Azimuth Distance (km) Brightness Sun altitude
Rises 04:35:16 0° 285° (WNW) 4,767 9.8 -15.5°
Reaches altitude 10° 04:39:00 10° 274° (W) 3,752 9.1 -15.1°
Maximum altitude 04:46:18 26° 223° (SW) 2,639 8.1 -14.2°
Drops below altitude 10° 04:53:29 10° 171° (S) 3,658 9.2 -13.4°
Sets 04:57:05 0° 159° (SSE) 4,627 9.9 -12.9°
